QPF
0.04 0.05 0.09 0.07 0.06 0.05 0.05 0.05 0.03 0.03 0.04 0.06 0.05 0.05 0.06 0.09 0.11 0.14 0.12 0.11 0.11 0.10 0.08 0.07 0.09 0.12 0.13 0.14 0.13 0.11 0.09 0.08 0.06 0.06 0.10 0.16 0.11 0.22 0.39 0.19 0.12 0.10 0.15
0.04 0.04 0.06 0.05 0.06 0.06 0.07 0.08 0.07 0.05 0.04 0.04 0.06 0.05 0.07 0.10 0.12 0.12 0.10 0.11 0.12 0.09 0.08 0.07 0.07 0.09 0.11 0.10 0.09 0.12 0.12 0.12 0.11 0.12 0.12 0.19 0.18 0.21 0.31 0.16 0.15 0.20 0.22
0.03 0.02 0.03 0.04 0.05 0.06 0.07 0.08 0.10 0.06 0.03 0.04 0.06 0.05 0.06 0.08 0.12 0.12 0.10 0.13 0.14 0.11 0.08 0.08 0.07 0.07 0.07 0.07 0.08 0.10 0.11 0.13 0.15 0.16 0.13 0.17 0.24 0.24 0.20 0.12 0.13 0.27 0.30
0.01 0.01 0.02 0.03 0.04 0.06 0.07 0.08 0.12 0.08 0.05 0.04 0.04 0.05 0.05 0.07 0.12 0.16 0.13 0.13 0.13 0.11 0.09 0.08 0.07 0.06 0.06 0.07 0.07 0.09 0.10 0.11 0.12 0.13 0.10 0.08 0.13 0.17 0.14 0.11 0.12 0.15 0.20
0.00 0.00 0.01 0.01 0.03 0.06 0.09 0.10 0.12 0.12 0.07 0.04 0.04 0.05 0.05 0.08 0.12 0.23 0.24 0.13 0.10 0.09 0.08 0.06 0.06 0.07 0.06 0.07 0.07 0.07 0.07 0.08 0.08 0.05 0.06 0.06 0.07 0.12 0.13 0.11 0.10 0.12 0.12
0.00 0.00 0.01 0.02 0.02 0.05 0.10 0.13 0.15 0.14 0.10 0.05 0.05 0.04 0.05 0.10 0.13 0.16 0.27 0.16 0.09 0.08 0.06 0.03 0.03 0.05 0.05 0.04 0.05 0.05 0.05 0.06 0.05 0.03 0.03 0.04 0.06 0.10 0.13 0.11 0.09 0.10 0.10
0.00 0.01 0.03 0.05 0.03 0.04 0.09 0.18 0.18 0.12 0.09 0.06 0.05 0.04 0.06 0.09 0.13 0.18 0.22 0.12 0.09 0.08 0.05 0.02 0.02 0.04 0.04 0.05 0.06 0.05 0.05 0.04 0.05 0.07 0.07 0.04 0.06 0.09 0.11 0.12 0.11 0.09 0.08
0.00 0.01 0.09 0.11 0.04 0.03 0.08 0.20 0.19 0.11 0.08 0.06 0.05 0.04 0.06 0.11 0.12 0.15 0.14 0.11 0.10 0.07 0.05 0.03 0.02 0.03 0.04 0.05 0.05 0.05 0.05 0.03 0.03 0.06 0.08 0.06 0.07 0.10 0.12 0.11 0.13 0.11 0.09
0.01 0.02 0.16 0.16 0.06 0.06 0.13 0.20 0.16 0.09 0.06 0.04 0.04 0.05 0.07 0.11 0.15 0.16 0.16 0.13 0.10 0.07 0.06 0.04 0.02 0.02 0.04 0.05 0.05 0.05 0.05 0.03 0.02 0.03 0.04 0.06 0.09 0.09 0.10 0.12 0.13 0.12 0.11
0.01 0.03 0.18 0.20 0.14 0.14 0.17 0.18 0.13 0.08 0.05 0.04 0.03 0.05 0.09 0.15 0.24 0.22 0.16 0.12 0.09 0.08 0.07 0.04 0.02 0.02 0.03 0.05 0.06 0.06 0.04 0.02 0.01 0.02 0.02 0.05 0.09 0.11 0.09 0.08 0.10 0.10 0.10
0.02 0.03 0.13 0.20 0.20 0.19 0.19 0.16 0.08 0.05 0.04 0.04 0.03 0.03 0.05 0.10 0.14 0.19 0.14 0.11 0.09 0.08 0.06 0.05 0.04 0.03 0.03 0.04 0.04 0.04 0.04 0.02 0.01 0.01 0.03 0.07 0.10 0.13 0.10 0.06 0.07 0.08 0.09
0.03 0.04 0.11 0.17 0.21 0.21 0.18 0.11 0.05 0.03 0.02 0.01 0.01 0.02 0.03 0.05 0.07 0.08 0.09 0.09 0.08 0.06 0.06 0.06 0.05 0.03 0.03 0.03 0.03 0.03 0.02 0.02 0.02 0.03 0.06 0.10 0.09 0.10 0.08 0.07 0.08 0.08 0.07
0.02 0.03 0.06 0.08 0.12 0.13 0.12 0.07 0.04 0.03 0.02 0.01 0.01 0.01 0.01 0.03 0.05 0.04 0.04 0.04 0.03 0.02 0.02 0.03 0.02 0.01 0.02 0.02 0.02 0.02 0.01 0.02 0.03 0.05 0.08 0.12 0.11 0.09 0.09 0.08 0.08 0.07 0.05
0.02 0.01 0.03 0.03 0.05 0.07 0.07 0.06 0.05 0.04 0.02 0.01 0.01 0.01 0.01 0.01 0.02 0.01 0.01 0.02 0.02 0.01 0.02 0.02 0.01 0.01 0.01 0.01 0.02 0.02 0.02 0.02 0.03 0.04 0.08 0.12 0.11 0.09 0.08 0.06 0.05 0.04 0.04
0.02 0.01 0.02 0.02 0.03 0.03 0.03 0.04 0.06 0.07 0.04 0.01 0.01 0.01 0.01 0.01 0.00 0.00 0.01 0.01 0.02 0.02 0.02 0.01 0.02 0.02 0.01 0.01 0.01 0.01 0.01 0.02 0.02 0.02 0.05 0.09 0.10 0.07 0.06 0.06 0.06 0.06 0.06
0.02 0.02 0.02 0.02 0.03 0.02 0.03 0.03 0.05 0.07 0.06 0.03 0.02 0.01 0.01 0.01 0.00 0.00 0.00 0.00 0.00 0.01 0.01 0.01 0.01 0.01 0.02 0.02 0.02 0.01 0.01 0.00 0.01 0.02 0.05 0.05 0.06 0.07 0.06 0.05 0.07 0.07 0.08
0.01 0.02 0.02 0.03 0.03 0.03 0.03 0.02 0.02 0.03 0.03 0.05 0.03 0.01 0.02 0.01 0.00 0.00 0.00 0.00 0.00 0.00 0.00 0.00 0.00 0.01 0.01 0.02 0.02 0.01 0.01 0.01 0.00 0.02 0.04 0.04 0.03 0.06 0.07 0.05 0.06 0.08 0.08
0.01 0.02 0.02 0.02 0.03 0.03 0.02 0.02 0.01 0.02 0.02 0.02 0.03 0.02 0.02 0.02 0.01 0.01 0.00 0.00 0.00 0.00 0.00 0.00 0.00 0.00 0.01 0.01 0.01 0.01 0.02 0.02 0.01 0.01 0.03 0.05 0.05 0.06 0.07 0.06 0.06 0.07 0.08
0.02 0.03 0.02 0.02 0.02 0.03 0.03 0.03 0.02 0.02 0.02 0.01 0.02 0.03 0.03 0.02 0.03 0.02 0.01 0.01 0.00 0.00 0.00 0.00 0.00 0.00 0.00 0.01 0.01 0.01 0.02 0.02 0.02 0.02 0.03 0.06 0.07 0.06 0.07 0.07 0.07 0.08 0.08
0.03 0.03 0.02 0.02 0.03 0.04 0.04 0.06 0.05 0.05 0.04 0.03 0.03 0.05 0.05 0.04 0.03 0.03 0.02 0.01 0.00 0.01 0.00 0.00 0.00 0.00 0.00 0.01 0.01 0.01 0.01 0.02 0.03 0.03 0.04 0.06 0.08 0.10 0.09 0.08 0.08 0.09 0.09
0.03 0.02 0.02 0.02 0.02 0.03 0.05 0.06 0.06 0.07 0.06 0.04 0.05 0.05 0.05 0.05 0.03 0.03 0.02 0.01 0.01 0.01 0.01 0.01 0.01 0.01 0.00 0.01 0.01 0.01 0.01 0.02 0.03 0.03 0.04 0.05 0.07 0.09 0.12 0.10 0.08 0.06 0.06
0.05 0.04 0.03 0.03 0.03 0.03 0.03 0.03 0.05 0.09 0.10 0.07 0.04 0.04 0.05 0.05 0.05 0.04 0.02 0.01 0.01 0.01 0.01 0.02 0.02 0.01 0.01 0.01 0.01 0.02 0.02 0.03 0.03 0.03 0.03 0.04 0.05 0.07 0.10 0.11 0.09 0.06 0.04
0.05 0.04 0.04 0.03 0.02 0.02 0.02 0.02 0.04 0.07 0.08 0.08 0.05 0.04 0.05 0.04 0.05 0.03 0.02 0.02 0.01 0.01 0.01 0.02 0.03 0.03 0.01 0.01 0.01 0.01 0.02 0.03 0.03 0.04 0.03 0.04 0.05 0.06 0.07 0.08 0.08 0.08 0.06
0.06 0.04 0.04 0.03 0.02 0.02 0.01 0.01 0.02 0.03 0.04 0.05 0.05 0.03 0.03 0.02 0.02 0.02 0.01 0.01 0.02 0.02 0.01 0.01 0.02 0.02 0.01 0.01 0.01 0.01 0.01 0.01 0.02 0.03 0.04 0.05 0.05 0.04 0.03 0.04 0.05 0.06 0.05
0.05 0.03 0.03 0.03 0.03 0.03 0.02 0.01 0.01 0.01 0.02 0.03 0.04 0.03 0.02 0.02 0.02 0.02 0.02 0.02 0.01 0.01 0.01 0.01 0.00 0.01 0.01 0.01 0.01 0.01 0.00 0.01 0.02 0.02 0.03 0.06 0.06 0.05 0.05 0.03 0.03 0.03 0.05
0.03 0.03 0.04 0.05 0.06 0.06 0.04 0.03 0.02 0.03 0.03 0.03 0.05 0.04 0.05 0.04 0.03 0.03 0.02 0.02 0.01 0.01 0.01 0.01 0.01 0.00 0.01 0.01 0.01 0.01 0.01 0.01 0.01 0.02 0.02 0.03 0.05 0.07 0.06 0.05 0.05 0.03 0.04
MSLP
1013.10 1012.35 1011.71 1011.27 1011.02 1010.94 1010.94 1010.94 1010.86 1010.65 1010.32 1009.91 1009.48 1009.09 1008.80 1008.61 1008.50 1008.44 1008.37 1008.26 1008.10 1007.89 1007.66 1007.46 1007.32 1007.26 1007.28 1007.35 1007.45 1007.52 1007.56 1007.54 1007.49 1007.40 1007.33 1007.29 1007.30 1007.36 1007.47 1007.60 1007.76 1007.91 1008.07
1013.36 1012.64 1012.02 1011.58 1011.33 1011.23 1011.21 1011.17 1011.05 1010.82 1010.47 1010.06 1009.65 1009.30 1009.05 1008.91 1008.84 1008.81 1008.77 1008.67 1008.50 1008.28 1008.04 1007.82 1007.66 1007.59 1007.59 1007.66 1007.75 1007.83 1007.89 1007.89 1007.87 1007.82 1007.78 1007.76 1007.78 1007.84 1007.92 1008.03 1008.15 1008.28 1008.41
1013.55 1012.85 1012.26 1011.84 1011.60 1011.51 1011.47 1011.41 1011.28 1011.03 1010.68 1010.28 1009.89 1009.57 1009.35 1009.24 1009.20 1009.19 1009.16 1009.06 1008.89 1008.66 1008.41 1008.18 1008.00 1007.90 1007.88 1007.92 1008.00 1008.08 1008.14 1008.17 1008.18 1008.18 1008.19 1008.21 1008.26 1008.33 1008.42 1008.51 1008.61 1008.71 1008.83
1013.67 1013.01 1012.45 1012.07 1011.86 1011.77 1011.74 1011.69 1011.55 1011.30 1010.95 1010.56 1010.19 1009.89 1009.69 1009.59 1009.56 1009.55 1009.52 1009.42 1009.25 1009.03 1008.78 1008.54 1008.35 1008.23 1008.18 1008.19 1008.24 1008.30 1008.36 1008.41 1008.46 1008.51 1008.57 1008.64 1008.73 1008.82 1008.92 1009.01 1009.09 1009.19 1009.29
1013.75 1013.13 1012.62 1012.29 1012.12 1012.06 1012.05 1012.01 1011.87 1011.63 1011.29 1010.91 1010.55 1010.25 1010.05 1009.95 1009.90 1009.88 1009.84 1009.74 1009.58 1009.37 1009.13 1008.91 1008.72 1008.59 1008.52 1008.50 1008.52 1008.56 1008.61 1008.67 1008.74 1008.83 1008.93 1009.05 1009.17 1009.29 1009.40 1009.49 1009.58 1009.67 1009.77
1013.86 1013.28 1012.82 1012.54 1012.42 1012.41 1012.42 1012.39 1012.26 1012.02 1011.69 1011.31 1010.95 1010.65 1010.44 1010.31 1010.24 1010.20 1010.14 1010.04 1009.88 1009.69 1009.48 1009.28 1009.11 1008.98 1008.90 1008.86 1008.85 1008.86 1008.90 1008.95 1009.04 1009.15 1009.28 1009.43 1009.57 1009.71 1009.83 1009.93 1010.02 1010.11 1010.22
1014.03 1013.50 1013.11 1012.88 1012.81 1012.82 1012.85 1012.83 1012.70 1012.46 1012.14 1011.77 1011.41 1011.10 1010.87 1010.72 1010.61 1010.53 1010.44 1010.33 1010.18 1010.01 1009.83 1009.66 1009.52 1009.40 1009.32 1009.26 1009.22 1009.21 1009.22 1009.26 1009.35 1009.46 1009.61 1009.77 1009.93 1010.07 1010.19 1010.29 1010.39 1010.49 1010.62
1014.32 1013.84 1013.50 1013.33 1013.29 1013.32 1013.35 1013.32 1013.19 1012.95 1012.62 1012.26 1011.91 1011.61 1011.37 1011.18 1011.04 1010.92 1010.79 1010.65 1010.49 1010.32 1010.16 1010.02 1009.90 1009.80 1009.72 1009.66 1009.60 1009.56 1009.55 1009.58 1009.64 1009.76 1009.90 1010.06 1010.22 1010.36 1010.48 1010.58 1010.68 1010.79 1010.93
1014.73 1014.31 1014.03 1013.90 1013.88 1013.91 1013.92 1013.86 1013.70 1013.46 1013.15 1012.81 1012.48 1012.19 1011.95 1011.74 1011.56 1011.39 1011.21 1011.03 1010.84 1010.65 1010.49 1010.36 1010.25 1010.16 1010.08 1010.00 1009.93 1009.88 1009.85 1009.85 1009.91 1010.01 1010.15 1010.30 1010.45 1010.59 1010.70 1010.80 1010.90 1011.02 1011.18
1015.23 1014.87 1014.65 1014.55 1014.54 1014.54 1014.52 1014.42 1014.24 1013.99 1013.69 1013.38 1013.09 1012.84 1012.61 1012.40 1012.20 1011.97 1011.73 1011.48 1011.24 1011.01 1010.82 1010.66 1010.54 1010.44 1010.35 1010.27 1010.19 1010.12 1010.07 1010.07 1010.12 1010.21 1010.35 1010.50 1010.64 1010.77 1010.87 1010.97 1011.07 1011.19 1011.37
1015.77 1015.49 1015.33 1015.26 1015.23 1015.20 1015.12 1014.98 1014.77 1014.52 1014.24 1013.98 1013.75 1013.54 1013.35 1013.15 1012.92 1012.65 1012.35 1012.03 1011.70 1011.41 1011.16 1010.96 1010.80 1010.67 1010.55 1010.44 1010.34 1010.26 1010.21 1010.20 1010.25 1010.36 1010.49 1010.65 1010.80 1010.92 1011.03 1011.12 1011.21 1011.34 1011.52
1016.30 1016.11 1016.00 1015.95 1015.91 1015.84 1015.71 1015.52 1015.28 1015.03 1014.79 1014.58 1014.41 1014.27 1014.12 1013.94 1013.71 1013.41 1013.04 1012.65 1012.24 1011.87 1011.54 1011.27 1011.04 1010.86 1010.70 1010.56 1010.43 1010.33 1010.27 1010.26 1010.32 1010.44 1010.60 1010.77 1010.93 1011.07 1011.18 1011.28 1011.37 1011.50 1011.68
1016.75 1016.65 1016.61 1016.58 1016.53 1016.42 1016.24 1016.01 1015.76 1015.51 1015.30 1015.15 1015.05 1014.97 1014.88 1014.73 1014.50 1014.18 1013.78 1013.32 1012.85 1012.40 1011.98 1011.63 1011.32 1011.07 1010.84 1010.64 1010.48 1010.34 1010.27 1010.27 1010.34 1010.48 1010.66 1010.87 1011.06 1011.23 1011.36 1011.46 1011.56 1011.69 1011.86
1017.09 1017.08 1017.09 1017.09 1017.03 1016.90 1016.69 1016.44 1016.17 1015.94 1015.76 1015.67 1015.62 1015.60 1015.56 1015.45 1015.24 1014.92 1014.51 1014.02 1013.50 1012.98 1012.50 1012.07 1011.68 1011.34 1011.04 1010.76 1010.53 1010.36 1010.25 1010.24 1010.32 1010.48 1010.70 1010.94 1011.18 1011.38 1011.55 1011.68 1011.79 1011.91 1012.08
1017.29 1017.36 1017.43 1017.45 1017.39 1017.25 1017.04 1016.78 1016.52 1016.31 1016.17 1016.11 1016.11 1016.13 1016.12 1016.05 1015.87 1015.57 1015.16 1014.68 1014.15 1013.61 1013.09 1012.60 1012.14 1011.71 1011.31 1010.95 1010.64 1010.40 1010.25 1010.21 1010.28 1010.46 1010.70 1010.99 1011.27 1011.52 1011.73 1011.90 1012.03 1012.17 1012.33
1017.37 1017.48 1017.58 1017.63 1017.59 1017.46 1017.26 1017.03 1016.80 1016.62 1016.50 1016.47 1016.48 1016.52 1016.53 1016.48 1016.32 1016.06 1015.70 1015.26 1014.76 1014.24 1013.72 1013.20 1012.68 1012.18 1011.69 1011.23 1010.83 1010.50 1010.28 1010.20 1010.24 1010.41 1010.68 1010.99 1011.32 1011.62 1011.88 1012.09 1012.27 1012.43 1012.61
1017.33 1017.46 1017.57 1017.64 1017.62 1017.53 1017.38 1017.19 1017.01 1016.86 1016.77 1016.74 1016.75 1016.78 1016.78 1016.73 1016.60 1016.38 1016.08 1015.71 1015.29 1014.83 1014.34 1013.83 1013.29 1012.73 1012.16 1011.61 1011.11 1010.69 1010.39 1010.23 1010.23 1010.37 1010.63 1010.95 1011.31 1011.65 1011.97 1012.23 1012.46 1012.67 1012.87
1017.19 1017.32 1017.43 1017.50 1017.52 1017.48 1017.40 1017.28 1017.16 1017.06 1016.99 1016.95 1016.93 1016.92 1016.88 1016.81 1016.69 1016.52 1016.29 1016.02 1015.70 1015.33 1014.92 1014.44 1013.92 1013.33 1012.71 1012.08 1011.48 1010.97 1010.58 1010.34 1010.27 1010.36 1010.58 1010.90 1011.26 1011.63 1011.98 1012.30 1012.58 1012.84 1013.09
1016.99 1017.08 1017.17 1017.25 1017.30 1017.33 1017.33 1017.31 1017.27 1017.22 1017.17 1017.11 1017.04 1016.97 1016.88 1016.77 1016.64 1016.50 1016.35 1016.17 1015.97 1015.72 1015.40 1015.00 1014.51 1013.93 1013.28 1012.61 1011.94 1011.35 1010.88 1010.56 1010.41 1010.43 1010.59 1010.86 1011.20 1011.56 1011.93 1012.28 1012.62 1012.93 1013.24
1016.74 1016.78 1016.84 1016.92 1017.01 1017.11 1017.20 1017.28 1017.33 1017.34 1017.31 1017.23 1017.12 1016.97 1016.80 1016.64 1016.50 1016.38 1016.28 1016.20 1016.12 1015.99 1015.78 1015.48 1015.05 1014.51 1013.87 1013.18 1012.48 1011.84 1011.30 1010.91 1010.68 1010.61 1010.69 1010.89 1011.17 1011.50 1011.85 1012.21 1012.57 1012.94 1013.30
1016.46 1016.45 1016.48 1016.55 1016.68 1016.84 1017.03 1017.20 1017.35 1017.42 1017.42 1017.32 1017.16 1016.94 1016.70 1016.48 1016.30 1016.19 1016.14 1016.14 1016.15 1016.14 1016.05 1015.84 1015.51 1015.04 1014.44 1013.78 1013.09 1012.43 1011.86 1011.41 1011.11 1010.96 1010.94 1011.04 1011.23 1011.48 1011.78 1012.12 1012.48 1012.88 1013.28
1016.15 1016.10 1016.10 1016.16 1016.31 1016.53 1016.80 1017.07 1017.30 1017.44 1017.47 1017.37 1017.16 1016.89 1016.59 1016.31 1016.10 1015.98 1015.96 1016.02 1016.11 1016.19 1016.20 1016.10 1015.87 1015.48 1014.97 1014.37 1013.73 1013.11 1012.54 1012.07 1011.71 1011.48 1011.36 1011.34 1011.41 1011.56 1011.77 1012.04 1012.38 1012.76 1013.19
1015.83 1015.76 1015.73 1015.78 1015.94 1016.20 1016.53 1016.87 1017.17 1017.36 1017.42 1017.33 1017.12 1016.80 1016.46 1016.14 1015.91 1015.78 1015.77 1015.86 1016.01 1016.16 1016.26 1016.25 1016.11 1015.83 1015.42 1014.92 1014.37 1013.82 1013.29 1012.83 1012.45 1012.15 1011.94 1011.80 1011.74 1011.76 1011.85 1012.03 1012.29 1012.64 1013.06
1015.50 1015.43 1015.38 1015.42 1015.57 1015.84 1016.20 1016.58 1016.92 1017.17 1017.26 1017.19 1016.97 1016.65 1016.29 1015.96 1015.71 1015.57 1015.57 1015.68 1015.86 1016.05 1016.21 1016.27 1016.23 1016.05 1015.76 1015.38 1014.95 1014.50 1014.05 1013.64 1013.26 1012.92 1012.63 1012.38 1012.19 1012.07 1012.03 1012.09 1012.26 1012.54 1012.91
1015.18 1015.11 1015.05 1015.07 1015.20 1015.45 1015.80 1016.20 1016.56 1016.82 1016.95 1016.90 1016.71 1016.40 1016.06 1015.73 1015.48 1015.35 1015.35 1015.46 1015.65 1015.86 1016.05 1016.16 1016.19 1016.11 1015.93 1015.68 1015.38 1015.06 1014.72 1014.37 1014.03 1013.68 1013.34 1013.01 1012.71 1012.46 1012.29 1012.22 1012.28 1012.46 1012.77
1014.86 1014.81 1014.74 1014.72 1014.82 1015.03 1015.35 1015.72 1016.07 1016.34 1016.47 1016.45 1016.29 1016.02 1015.71 1015.41 1015.18 1015.06 1015.06 1015.17 1015.35 1015.56 1015.76 1015.91 1015.99 1015.98 1015.91 1015.79 1015.62 1015.42 1015.20 1014.95 1014.67 1014.35 1013.99 1013.61 1013.23 1012.87 1012.59 1012.40 1012.35 1012.43 1012.65
Thickness
5765 5769 5771 5772 5773 5774 5775 5776 5777 5778 5779 5780 5780 5781 5781 5781 5780 5779 5779 5779 5777 5777 5777 5777 5777 5776 5775 5775 5775 5775 5775 5775 5775 5775 5774 5774 5774 5774 5774 5774 5773 5773 5772
5766 5768 5770 5771 5772 5773 5773 5774 5775 5775 5776 5777 5778 5778 5778 5778 5777 5776 5776 5776 5775 5774 5774 5774 5774 5773 5773 5773 5772 5772 5772 5772 5772 5772 5772 5772 5773 5774 5773 5771 5771 5770 5771
5766 5767 5768 5769 5770 5771 5771 5772 5772 5773 5773 5774 5775 5775 5775 5775 5774 5774 5773 5773 5772 5771 5771 5771 5770 5771 5770 5770 5770 5770 5770 5769 5769 5769 5769 5769 5770 5771 5770 5769 5768 5768 5769
5766 5766 5766 5767 5768 5769 5769 5769 5769 5769 5770 5770 5771 5771 5771 5771 5771 5771 5770 5769 5769 5768 5767 5767 5767 5768 5767 5767 5767 5767 5767 5766 5766 5766 5766 5766 5766 5766 5766 5766 5765 5765 5764
5764 5764 5764 5765 5765 5766 5766 5766 5766 5766 5766 5767 5767 5768 5768 5768 5768 5768 5767 5766 5765 5765 5764 5764 5764 5764 5764 5764 5764 5764 5764 5763 5763 5762 5762 5763 5763 5763 5762 5762 5762 5761 5761
5761 5761 5761 5762 5762 5763 5763 5763 5763 5763 5762 5763 5763 5764 5764 5764 5765 5765 5764 5763 5762 5761 5761 5761 5761 5761 5760 5761 5761 5760 5760 5760 5759 5759 5759 5759 5759 5759 5759 5758 5758 5758 5757
5758 5758 5759 5759 5759 5760 5760 5760 5760 5760 5759 5759 5760 5760 5760 5760 5760 5762 5760 5759 5758 5758 5757 5757 5757 5757 5757 5757 5757 5757 5756 5756 5756 5755 5755 5756 5756 5756 5755 5755 5754 5754 5754
5756 5756 5756 5756 5756 5756 5757 5757 5756 5756 5756 5755 5755 5755 5755 5755 5756 5756 5755 5755 5754 5754 5754 5754 5754 5754 5753 5753 5753 5753 5753 5753 5752 5752 5752 5752 5752 5752 5752 5751 5751 5751 5751
5754 5753 5752 5753 5753 5754 5754 5753 5753 5752 5752 5751 5751 5751 5751 5751 5751 5751 5751 5750 5750 5750 5750 5750 5750 5750 5750 5749 5749 5749 5749 5749 5749 5748 5749 5748 5749 5749 5748 5748 5747 5747 5747
5750 5750 5749 5750 5750 5751 5750 5749 5749 5749 5748 5747 5747 5747 5746 5746 5746 5746 5746 5746 5746 5746 5746 5746 5746 5746 5745 5745 5745 5745 5745 5745 5744 5744 5745 5745 5744 5744 5744 5744 5743 5743 5743
5744 5745 5746 5746 5746 5747 5746 5745 5745 5744 5744 5743 5743 5743 5742 5742 5741 5741 5741 5742 5742 5742 5742 5742 5742 5741 5741 5740 5740 5740 5740 5740 5740 5740 5740 5741 5740 5740 5739 5739 5739 5739 5739
5739 5741 5742 5742 5742 5742 5742 5741 5740 5740 5739 5739 5739 5738 5737 5737 5736 5736 5737 5737 5737 5737 5737 5737 5737 5736 5736 5736 5736 5735 5735 5735 5735 5735 5735 5736 5736 5735 5735 5735 5735 5735 5735
5738 5738 5739 5739 5739 5738 5738 5737 5736 5736 5735 5735 5735 5734 5733 5733 5732 5732 5732 5732 5732 5732 5732 5732 5732 5732 5731 5731 5730 5730 5730 5730 5730 5730 5731 5731 5731 5731 5731 5731 5731 5730 5730
5736 5736 5737 5737 5736 5735 5735 5734 5733 5732 5731 5731 5730 5730 5730 5728 5727 5727 5727 5727 5727 5726 5727 5727 5727 5727 5726 5726 5725 5725 5724 5724 5724 5725 5725 5726 5726 5726 5726 5726 5726 5726 5726
5733 5733 5734 5734 5733 5732 5732 5731 5730 5729 5728 5727 5727 5726 5726 5724 5723 5722 5722 5722 5721 5721 5721 5721 5721 5721 5721 5720 5720 5719 5719 5719 5719 5719 5719 5720 5721 5721 5721 5721 5721 5721 5720
5731 5731 5732 5731 5731 5730 5729 5728 5726 5725 5724 5723 5723 5722 5722 5721 5720 5718 5717 5717 5717 5717 5716 5716 5716 5715 5715 5714 5713 5713 5713 5713 5713 5713 5713 5714 5714 5715 5715 5716 5716 5715 5715
5730 5730 5729 5729 5728 5726 5725 5725 5723 5722 5721 5719 5719 5719 5718 5717 5716 5715 5713 5712 5712 5712 5712 5711 5711 5710 5709 5709 5708 5707 5707 5707 5707 5707 5707 5708 5708 5709 5710 5710 5710 5709 5709
5729 5728 5728 5728 5725 5724 5722 5721 5720 5718 5717 5716 5715 5714 5714 5713 5713 5711 5709 5708 5708 5707 5707 5706 5704 5703 5702 5702 5701 5702 5702 5701 5701 5701 5701 5702 5703 5703 5703 5704 5704 5704 5704
5728 5727 5725 5724 5723 5721 5720 5718 5717 5715 5713 5712 5711 5710 5709 5709 5708 5707 5705 5704 5703 5702 5701 5701 5698 5697 5696 5695 5696 5695 5695 5695 5695 5696 5696 5696 5697 5697 5697 5697 5697 5697 5698
5725 5724 5722 5721 5720 5718 5716 5714 5712 5710 5708 5707 5706 5706 5705 5704 5704 5702 5700 5699 5698 5697 5695 5694 5693 5692 5691 5690 5691 5689 5688 5689 5690 5689 5690 5690 5691 5691 5691 5691 5691 5691 5691
5721 5720 5719 5717 5716 5714 5711 5708 5705 5703 5703 5702 5702 5702 5701 5700 5699 5698 5696 5694 5693 5691 5689 5688 5687 5685 5684 5684 5682 5680 5681 5682 5683 5683 5683 5684 5684 5685 5685 5685 5685 5685 5685
5717 5716 5715 5714 5713 5712 5710 5707 5704 5701 5699 5699 5698 5697 5696 5696 5695 5693 5691 5690 5688 5686 5684 5683 5681 5679 5678 5678 5675 5672 5669 5671 5674 5676 5676 5677 5677 5678 5678 5679 5679 5679 5679
5713 5713 5714 5712 5710 5709 5707 5704 5700 5696 5694 5692 5691 5691 5691 5691 5690 5689 5687 5686 5684 5682 5679 5678 5676 5674 5671 5671 5672 5668 5662 5660 5662 5667 5669 5670 5671 5671 5672 5672 5673 5673 5674
5712 5712 5711 5709 5707 5705 5703 5699 5695 5690 5687 5687 5687 5686 5687 5687 5686 5684 5683 5681 5679 5678 5675 5674 5673 5671 5668 5666 5666 5666 5665 5663 5658 5657 5661 5663 5665 5666 5666 5667 5667 5668 5668
5711 5709 5708 5706 5704 5701 5699 5696 5692 5688 5685 5684 5683 5682 5681 5681 5681 5680 5679 5677 5675 5673 5672 5670 5668 5667 5665 5663 5662 5661 5660 5659 5658 5654 5652 5653 5656 5659 5661 5662 5662 5662 5663
5707 5705 5703 5702 5699 5697 5695 5692 5688 5685 5682 5679 5678 5676 5676 5675 5675 5675 5674 5673 5671 5669 5667 5665 5664 5662 5661 5660 5659 5658 5657 5655 5653 5651 5648 5647 5648 5651 5654 5656 5657 5657 5658